DW6277 Weather Reports


time (UTC)temp
C
wind
direction
speed
KPH
gust
KPH
rain 1hr
cm
rain 24hr
cm
rain mn
cm
humidity
%
barometer
mb
20260831040138 20 91 3.2 9.7 0.00 0.00 0.00 76 1028.5
20260831035134 20 72 4.8 9.7 0.00 0.00 0.00 74 1028.6
20260831034101 20 51 3.2 9.7 0.00 0.00 0.00 74 1028.7
20260831031926 20 141 3.2 8.0 0.00 0.00 0.00 75 1028.8
20260831030855 20 38 3.2 9.7 0.00 0.00 0.00 76 1029.0
20260831025905 20 68 3.2 9.7 0.00 0.00 0.00 75 1029.1
20260831023809 20 39 3.2 12.9 0.00 0.00 0.00 75 1029.6
20260831021840 20 48 3.2 9.7 0.00 0.00 0.00 76 1029.9
20260831020815 20 34 1.6 11.3 0.00 0.00 0.00 75 1030.0
20260831015831 20 101 3.2 11.3 0.00 0.00 0.00 75 1030.2
20260831014759 20 53 3.2 9.7 0.00 0.00 0.00 74 1030.3
20260831012616 20 91 1.6 8.0 0.00 0.00 0.00 75 1030.6
20260831011633 21 93 3.2 8.0 0.00 0.00 0.00 74 1030.7
20260831010622 21 96 0.0 6.4 0.00 0.00 0.00 72 1030.8
20260831005617 21 298 0.0 8.0 0.00 0.00 0.00 71 1030.8
20260831004548 20 33 1.6 8.0 0.00 0.00 0.00 73 1031.0
20260831003546 20 41 1.6 9.7 0.00 0.00 0.00 74 1031.0
20260831002558 20 308 0.0 9.7 0.00 0.00 0.00 75 1031.0
20260831001546 20 14 1.6 8.0 0.00 0.00 0.00 77 1030.9
20260831000552 20 315 1.6 9.7 0.00 0.00 0.00 78 1031.0
20260830235527 19 30 1.6 9.7 0.00 0.00 0.00 79 1031.0
20260830233408 19 309 0.0 8.0 0.00 0.00 0.00 79 1030.9
20260830231311 17 339 1.6 8.0 0.00 0.00 0.00 83 1031.0
20260830230317 17 324 1.6 8.0 0.00 0.00 0.00 86 1030.9
20260830225332 16 324 1.6 8.0 0.00 0.00 0.00 88 1030.9
20260830222159 13 304 1.6 6.4 0.00 0.00 0.00 93 1030.8
20260830220031 12 315 1.6 8.0 0.00 0.00 0.00 95 1030.7
20260830215032 12 321 1.6 9.7 0.00 0.00 0.00 96 1030.7
20260830214012 11 311 3.2 9.7 0.00 0.00 0.00 96 1030.7
20260830212946 11 315 4.8 9.7 0.00 0.00 0.00 96 1030.6
20260830212009 11 326 3.2 9.7 0.00 0.00 0.00 96 1030.5
20260830211022 10 308 1.6 6.4 0.00 0.00 0.00 96 1030.4
20260830201449 9 321 1.6 6.4 0.00 0.00 0.00 95 1029.8
20260830195316 10 319 1.6 8.0 0.00 0.00 0.00 95 1029.5
20260830194241 10 323 3.2 6.4 0.00 0.00 0.00 95 1029.4
20260830193207 10 323 1.6 6.4 0.00 0.00 0.00 95 1029.3
20260830192146 10 332 3.2 6.4 0.00 0.00 0.00 95 1029.2
20260830191119 10 316 1.6 6.4 0.00 0.00 0.00 95 1029.1
20260830190057 10 319 1.6 4.8 0.00 0.00 0.00 94 1029.1
20260830185030 10 314 1.6 3.2 0.00 0.00 0.00 94 1029.2
20260830184010 10 312 1.6 4.8 0.00 0.00 0.00 94 1029.2
20260830182941 10 319 1.6 4.8 0.00 0.00 0.00 94 1029.2
20260830182002 10 319 1.6 3.2 0.00 0.00 0.00 94 1029.2
20260830181008 10 321 1.6 3.2 0.00 0.00 0.00 93 1029.2
20260830180017 11 49 0.0 3.2 0.00 0.00 0.00 93 1029.2
20260830174959 11 49 0.0 3.2 0.00 0.00 0.00 93 1029.2
20260830172753 11 49 0.0 3.2 0.00 0.00 0.00 92 1029.3
20260830171732 11 49 0.0 3.2 0.00 0.00 0.00 92 1029.2
20260830170736 11 49 0.0 1.6 0.00 0.00 0.00 92 1029.3
20260830165751 11 49 0.0 0.0 0.00 0.00 0.00 91 1029.3
20260830164748 12 49 0.0 1.6 0.00 0.00 0.00 90 1029.3
20260830162619 13 68 0.0 0.0 0.00 0.00 0.00 91 1029.3
20260830161555 13 68 0.0 0.0 0.00 0.00 0.00 92 1029.2
20260830155434 13 68 0.0 0.0 0.00 0.00 0.00 91 1029.3
20260830154410 13 68 0.0 1.6 0.00 0.00 0.00 91 1029.4
20260830153347 13 68 0.0 1.6 0.00 0.00 0.00 90 1029.5
20260830152406 13 68 0.0 0.0 0.00 0.00 0.00 90 1029.5
20260830150251 13 68 0.0 1.6 0.00 0.00 0.00 91 1029.6
20260830142957 13 68 0.0 1.6 0.00 0.00 0.00 91 1029.6
20260830141942 13 68 0.0 1.6 0.00 0.00 0.00 91 1029.7
20260830140919 13 68 0.0 3.2 0.00 0.00 0.00 92 1029.5
20260830135913 13 68 0.0 3.2 0.00 0.00 0.00 92 1029.6
20260830134904 13 68 0.0 3.2 0.00 0.00 0.00 92 1029.6
20260830133914 12 68 0.0 0.0 0.00 0.00 0.00 91 1029.7
20260830132901 12 68 0.0 0.0 0.00 0.00 0.00 91 1029.6
20260830125610 13 68 0.0 0.0 0.00 0.00 0.00 90 1029.7
20260830124541 13 68 0.0 0.0 0.00 0.00 0.00 90 1029.7
20260830123533 14 68 0.0 3.2 0.00 0.00 0.00 91 1029.8
20260830122459 14 68 0.0 3.2 0.00 0.00 0.00 91 1029.7
20260830115247 13 68 0.0 0.0 0.00 0.00 0.00 91 1029.5
20260830114228 13 68 0.0 0.0 0.00 0.00 0.00 90 1029.5
20260830113249 13 68 0.0 0.0 0.00 0.00 0.00 90 1029.5
20260830112258 14 68 0.0 0.0 0.00 0.00 0.00 90 1029.6
20260830111227 13 68 0.0 0.0 0.00 0.00 0.00 90 1029.5
20260830110251 13 68 0.0 0.0 0.00 0.00 0.00 89 1029.5
20260830105251 14 68 0.0 0.0 0.00 0.00 0.00 88 1029.4
20260830104224 14 68 0.0 1.6 0.00 0.00 0.00 87 1029.4
20260830103229 15 68 0.0 1.6 0.00 0.00 0.00 86 1029.4
20260830102249 15 68 0.0 1.6 0.00 0.00 0.00 86 1029.4
20260830101246 15 68 0.0 0.0 0.00 0.00 0.00 85 1029.3
20260830100230 15 68 0.0 0.0 0.00 0.00 0.00 84 1029.2
20260830095205 16 68 0.0 0.0 0.00 0.00 0.00 84 1029.2
20260830094146 16 68 0.0 0.0 0.00 0.00 0.00 85 1029.0
20260830093155 16 68 0.0 0.0 0.00 0.00 0.00 84 1029.1
20260830091132 16 68 0.0 0.0 0.00 0.00 0.00 83 1029.0
20260830090113 16 68 0.0 0.0 0.00 0.00 0.00 83 1028.9
20260830085102 16 68 0.0 0.0 0.00 0.00 0.00 82 1028.8
20260830084039 16 68 0.0 0.0 0.00 0.00 0.00 82 1028.7
20260830081936 17 68 0.0 0.0 0.00 0.00 0.00 82 1028.7
20260830080956 17 68 0.0 0.0 0.00 0.00 0.00 82 1028.6
20260830074823 17 68 0.0 0.0 0.00 0.00 0.00 82 1028.4
20260830072714 17 68 0.0 0.0 0.00 0.00 0.00 81 1028.2
20260830071737 17 68 0.0 1.6 0.00 0.00 0.00 80 1028.2
20260830070734 17 66 0.0 0.0 0.00 0.00 0.00 80 1028.1
20260830064607 18 65 0.0 4.8 0.00 0.00 0.00 79 1028.1
20260830063604 18 139 0.0 6.4 0.00 0.00 0.00 78 1028.1
20260830062543 18 135 1.6 6.4 0.00 0.00 0.00 78 1028.1
20260830061515 18 117 1.6 4.8 0.00 0.00 0.00 77 1028.0
20260830060518 18 137 1.6 6.4 0.00 0.00 0.00 78 1028.0
20260830055503 18 124 1.6 6.4 0.00 0.00 0.00 78 1028.0
20260830054448 18 103 0.0 8.0 0.00 0.00 0.00 77 1028.0
20260830052253 19 113 1.6 6.4 0.00 0.00 0.00 78 1028.2
20260830050206 19 101 1.6 6.4 0.00 0.00 0.00 78 1028.3
20260830045159 18 113 3.2 9.7 0.00 0.00 0.00 79 1028.4
20260830044221 18 135 3.2 9.7 0.00 0.00 0.00 78 1028.4
20260830043232 18 103 3.2 9.7 0.00 0.03 0.00 78 1028.4
20260830042225 19 127 3.2 8.0 0.00 0.03 0.00 76 1028.3